Temperature
25 23 22 24 27 28 29 33 34 34 34 33 33 33 33 31 29 27 27 26 24 24 24 23 22 21 21 20 20 20 20 20 19 19 19 19 19 19 19 19 19 19 19 19 19 19 20 20 20
25 23 25 27 29 27 30 34 33 33 33 33 32 33 33 30 29 27 26 25 24 24 24 23 22 22 21 20 20 20 20 20 19 19 19 19 19 19 19 19 19 19 19 19 19 19 19 19 20
25 24 27 30 31 29 31 34 34 34 33 33 33 32 31 29 28 27 26 25 23 23 24 24 23 22 21 20 20 20 19 19 19 19 19 19 19 19 19 19 19 19 19 19 19 19 19 19 19
24 27 29 31 32 33 34 34 35 34 34 33 33 32 29 27 28 27 25 24 23 22 23 24 23 22 21 20 20 20 19 19 19 19 19 19 19 19 19 19 19 19 19 19 19 19 19 19 19
27 29 32 33 33 35 35 35 35 34 34 33 33 32 28 27 27 26 25 24 23 22 22 23 23 22 22 21 20 20 20 19 19 19 19 19 19 19 19 19 19 19 19 19 19 19 19 19 19
29 32 32 32 33 35 35 35 35 34 34 33 33 32 28 27 26 26 25 24 23 22 22 23 23 22 22 21 20 20 20 20 20 20 20 19 19 19 19 19 19 19 19 19 19 19 19 19 19
30 32 32 33 33 35 35 35 34 34 33 33 33 32 28 27 26 26 25 25 24 23 22 23 23 22 22 21 21 20 20 20 20 20 19 19 19 19 19 19 19 19 19 19 19 19 19 19 19
30 32 32 34 34 35 35 35 35 34 33 33 33 32 29 27 26 26 25 25 25 23 22 23 23 22 22 21 21 21 20 20 20 20 20 19 19 19 19 19 19 19 19 19 19 19 19 19 19
30 31 31 34 34 35 35 35 35 34 34 32 33 32 30 28 27 26 25 25 25 24 22 22 22 22 22 22 21 21 21 20 20 20 20 20 20 19 19 19 19 19 19 19 19 19 19 19 19
31 31 33 35 35 35 35 34 35 35 34 33 33 31 29 27 27 26 26 25 25 24 23 22 22 21 21 21 20 21 21 21 20 20 20 19 19 19 18 18 18 19 19 19 19 19 19 19 19
32 32 33 35 34 34 34 34 35 35 34 33 32 30 29 28 27 26 26 25 25 24 24 23 22 21 21 20 20 20 20 20 20 20 19 19 19 19 19 19 19 19 19 19 19 19 19 19 18
33 33 33 34 33 33 34 34 34 34 34 33 32 30 29 28 28 27 26 25 24 24 23 23 22 21 21 21 21 20 20 20 20 20 19 19 19 19 19 19 19 19 19 19 19 19 19 19 18
32 32 32 33 33 33 33 33 34 34 34 33 32 31 30 30 29 27 26 25 25 23 23 23 22 21 20 20 21 20 20 21 20 20 20 20 19 19 19 19 19 19 19 19 19 19 19 19 19
32 32 32 32 33 33 33 33 33 34 34 33 32 32 31 31 30 28 26 25 25 23 22 22 22 21 20 20 20 20 20 21 21 21 20 20 20 19 19 19 19 19 19 19 19 19 19 19 19
31 31 32 33 33 33 33 33 34 34 34 33 32 32 31 31 30 28 27 25 25 23 23 22 21 20 20 20 20 20 20 20 21 21 21 20 20 19 19 19 19 19 19 19 19 19 19 19 19
32 31 31 33 34 34 32 31 34 34 33 33 32 32 31 29 29 28 27 25 25 24 23 22 21 21 20 20 19 19 20 20 21 21 21 21 20 20 19 19 19 19 19 19 19 19 19 19 19
31 31 32 33 34 33 32 32 33 33 33 32 31 31 30 28 27 27 26 25 24 23 23 22 21 21 20 20 20 20 20 20 21 21 21 21 20 20 19 19 19 19 19 19 19 19 19 19 19
31 32 32 33 34 33 31 31 33 33 32 31 31 30 29 27 26 25 24 24 23 23 22 22 21 20 20 20 20 20 20 20 20 20 20 21 20 20 19 19 19 19 19 19 19 19 19 19 19
30 30 31 32 33 32 30 30 32 33 32 31 30 28 27 26 25 23 23 23 22 22 22 21 20 20 20 20 19 19 19 20 20 20 20 20 20 20 20 19 19 19 19 19 19 19 19 19 19
30 30 30 31 32 31 30 30 31 32 32 30 29 27 26 25 24 23 22 22 21 21 21 20 20 19 19 19 19 19 19 19 19 19 20 20 19 19 19 19 19 19 19 19 19 19 19 18 18
30 30 30 29 30 30 29 29 30 32 31 29 28 27 26 25 24 23 22 21 21 20 20 20 19 19 19 19 19 19 19 19 19 19 19 19 19 19 19 19 19 19 18 18 18 18 18 18 18
28 30 29 28 28 28 29 28 30 31 30 28 27 26 25 25 24 23 23 22 21 20 20 19 19 19 19 18 18 18 18 18 18 19 18 19 19 19 18 18 18 18 18 18 18 17 17 16 17
28 29 28 28 27 27 28 28 29 30 27 26 25 24 24 25 24 23 23 22 21 20 20 19 19 18 18 18 18 17 17 18 18 18 18 18 18 18 18 18 18 18 18 17 17 16 16 16 16
29 28 28 28 28 26 27 26 27 28 27 25 25 25 25 25 24 24 23 22 21 20 20 19 18 18 17 17 17 17 17 17 17 17 17 17 17 17 17 17 17 17 17 16 16 16 15 15 15
28 27 26 26 26 26 26 26 27 28 28 27 26 26 25 25 24 24 23 22 21 20 20 19 18 17 17 16 16 16 16 16 16 16 16 16 16 16 16 16 16 16 16 15 15 15 15 15 14
27 27 25 24 25 26 27 27 28 29 28 27 27 26 26 25 25 24 23 22 21 21 20 19 18 17 16 16 16 16 16 16 16 16 16 16 16 16 15 15 15 15 15 15 15 15 15 15 15
27 27 28 26 26 26 27 28 28 28 27 27 27 26 26 26 25 24 24 22 21 20 19 18 17 16 16 15 15 15 15 15 15 15 15 15 15 15 15 15 15 15 15 15 15 14 14 14 14
28 28 26 25 24 24 25 26 26 26 26 27 27 27 26 26 25 24 23 22 21 20 19 17 17 16 15 15 15 14 14 14 14 14 14 15 15 15 15 14 14 14 14 14 14 14 14 14 14
27 27 26 26 25 23 23 25 28 27 27 27 27 26 26 25 25 24 23 21 20 19 18 17 16 15 15 14 14 14 14 14 14 14 13 14 14 14 14 14 14 14 14 14 14 14 14 14 14
28 27 27 25 24 24 24 25 28 27 27 27 26 26 25 24 24 23 22 21 20 19 18 17 16 15 14 14 14 13 13 13 13 13 13 13 13 13 13 13 13 13 13 13 14 14 13 13 13
Wind_Speed
10 11 10 7 6 5 5 9 13 14 14 13 11 8 11 16 11 7 12 18 25 23 22 22 19 17 16 15 14 14 14 14 13 12 11 9 8 7 6 6 5 5 6 6 6 6 6 7 7
11 14 10 6 4 3 3 13 15 13 10 8 7 6 10 15 11 10 14 20 24 22 21 21 20 18 16 15 14 14 15 14 13 12 11 9 8 7 6 6 5 4 4 4 5 5 5 5 5
12 16 7 6 3 3 3 12 10 11 9 7 6 10 10 9 9 8 16 20 22 19 20 22 21 19 18 16 15 14 14 13 12 12 11 10 9 8 7 7 6 5 5 4 4 4 4 4 4
9 8 7 9 5 2 8 9 7 10 9 7 5 10 11 6 4 12 19 20 21 19 20 22 21 19 18 17 15 14 14 13 12 11 11 10 9 9 8 7 6 6 5 5 5 4 4 5 5
10 7 11 9 5 4 8 7 6 10 8 8 7 13 10 6 9 17 18 20 20 19 20 22 21 20 18 17 16 15 14 13 12 11 11 10 10 9 9 8 7 6 6 6 6 6 6 6 6
7 10 12 6 5 3 6 5 2 7 6 5 6 11 8 9 12 15 17 17 18 19 20 21 21 19 18 17 15 14 14 13 12 12 11 10 10 9 9 9 9 8 8 7 7 7 8 8 8
11 13 16 12 7 2 4 2 1 3 3 8 6 8 10 12 13 15 15 15 17 19 20 18 19 17 17 16 15 14 13 13 12 12 11 11 11 11 10 10 10 10 10 9 9 10 10 11 11
11 11 17 15 8 0 5 4 1 3 4 6 4 8 11 13 15 16 14 13 15 18 20 17 18 17 16 15 16 15 14 13 13 12 12 12 12 13 14 14 14 14 13 12 12 13 13 14 14
12 11 15 12 9 4 7 6 4 1 3 2 1 8 14 17 16 16 13 12 12 15 18 18 18 16 16 16 18 17 15 15 14 13 14 14 13 15 17 19 19 19 17 16 15 16 16 16 18
10 12 17 10 9 9 7 5 8 6 4 5 3 11 15 16 14 14 14 14 12 13 17 16 16 15 14 15 16 15 15 15 16 15 16 15 15 15 15 20 23 22 21 19 19 19 17 17 16
14 16 18 16 11 10 9 10 8 8 5 3 2 7 11 16 13 13 13 13 12 10 12 15 14 14 13 8 11 11 12 14 17 17 17 16 14 13 13 10 16 19 20 17 17 18 16 15 15
16 16 15 13 13 13 12 11 11 11 6 5 8 7 10 13 13 13 12 12 12 11 11 12 13 13 10 7 7 8 8 7 10 16 18 13 7 6 6 4 9 12 13 13 11 9 13 14 14
12 14 17 15 13 13 14 14 14 13 9 1 5 6 9 10 12 13 12 12 12 11 11 9 10 11 9 7 5 7 7 7 9 10 16 14 7 9 8 5 5 6 7 7 7 6 7 7 7
12 12 13 15 16 15 15 15 16 17 11 2 1 4 7 9 10 12 12 10 11 13 12 11 10 10 8 7 6 6 6 5 7 7 12 16 10 7 6 6 5 5 7 6 4 6 6 6 7
10 14 17 18 19 16 13 15 17 19 11 4 6 6 5 3 2 8 11 11 11 11 11 9 10 10 9 9 10 9 9 9 7 6 10 13 12 7 6 6 6 5 7 7 4 4 4 6 7
13 15 18 20 16 9 7 13 14 9 7 4 5 6 1 3 3 2 5 8 8 9 10 9 11 12 11 9 8 9 10 8 7 6 8 10 12 10 6 6 6 5 5 3 4 5 5 6 5
16 18 19 17 10 7 8 11 9 3 2 4 5 5 3 5 0 3 3 2 4 3 5 8 8 8 11 12 10 10 8 8 6 5 5 7 11 12 7 7 6 4 4 4 5 5 4 5 5
13 13 11 10 3 2 6 12 15 7 3 4 4 3 3 2 2 3 4 5 2 2 3 5 7 7 5 6 8 8 10 9 7 7 6 6 6 8 7 7 8 7 5 5 5 6 5 5 5
13 13 14 12 8 7 10 14 17 14 8 4 1 4 4 4 6 6 4 5 4 1 2 3 4 5 6 6 6 7 8 8 8 7 7 7 7 7 7 7 6 7 7 7 7 6 6 6 5
11 12 13 13 8 9 12 15 17 17 13 6 4 3 3 4 6 4 2 3 5 6 6 5 3 4 5 6 6 6 7 7 8 8 7 5 5 6 8 8 7 7 7 9 8 7 5 5 5
10 11 13 14 16 17 19 22 21 20 12 9 7 5 5 6 6 4 3 3 3 4 5 5 6 5 5 6 6 7 6 7 8 8 8 8 7 7 8 9 8 8 9 9 9 8 9 7 6
10 12 14 14 15 17 18 19 18 12 7 10 8 7 7 6 5 4 3 3 3 3 3 2 3 4 5 6 6 8 8 9 9 8 7 8 8 8 8 9 9 8 8 8 9 9 7 7 6
10 13 15 18 17 19 19 17 15 4 6 9 7 6 4 3 2 2 3 3 4 5 5 4 4 4 4 6 7 8 9 8 8 8 8 8 7 7 7 7 6 6 6 6 6 5 5 4 4
8 12 17 19 16 17 11 11 9 4 10 13 10 7 4 2 2 1 3 3 3 5 5 5 4 5 5 6 8 8 9 10 10 10 8 7 6 6 6 5 5 5 4 4 4 3 3 3 3
7 10 10 10 5 4 4 7 5 6 9 11 11 8 6 3 3 3 3 4 4 5 5 4 5 5 5 7 7 8 8 9 10 10 9 8 6 6 6 6 5 4 4 4 4 4 4 4 4
7 8 8 10 12 14 13 9 3 7 5 4 4 4 4 5 4 3 4 3 3 5 5 5 5 5 6 7 8 8 8 8 7 8 8 7 6 5 5 6 6 6 5 5 5 4 4 4 4
7 7 10 11 14 16 11 8 3 7 2 2 4 6 7 7 6 7 5 4 5 5 6 6 5 5 6 7 8 7 7 7 7 8 7 6 5 5 5 5 5 5 4 4 4 3 4 4 4
9 9 8 8 10 13 14 12 6 4 4 6 6 7 9 8 8 7 6 6 5 5 5 5 4 4 5 6 7 7 7 7 6 5 5 5 4 3 2 4 4 4 4 3 3 3 3 3 3
8 10 10 10 10 12 15 12 11 9 8 7 9 10 10 11 12 8 5 4 4 5 5 4 3 3 3 4 5 6 6 6 5 5 6 6 5 4 3 1 2 3 3 4 3 2 3 3 2
12 10 11 10 12 14 16 16 9 6 9 10 11 10 9 10 10 7 5 3 4 5 5 5 4 4 3 2 3 3 4 4 4 5 6 7 7 6 6 4 2 1 1 2 2 2 4 4 5
Wind_Direction
248 246 237 254 255 273 292 71 58 53 58 61 49 29 33 48 52 79 128 130 120 128 135 138 137 138 140 146 151 151 149 148 148 149 148 145 142 138 135 133 128 120 115 113 112 112 116 121 125
266 261 250 253 257 331 340 72 68 61 60 76 76 42 52 64 64 103 123 123 125 130 140 142 141 140 140 143 148 153 154 152 151 152 153 153 154 157 158 157 155 148 139 137 137 137 138 144 151
262 263 267 249 223 170 94 81 84 89 71 55 77 63 51 61 81 115 124 131 127 132 140 140 146 144 144 145 148 152 154 154 154 156 158 161 165 172 174 172 172 171 166 164 168 171 173 181 191
268 259 236 257 296 136 89 100 111 95 84 60 45 79 71 54 87 126 133 135 129 136 141 145 150 149 149 151 153 154 156 159 161 163 166 171 177 182 184 181 185 188 188 190 193 199 207 215 220
261 264 263 281 303 69 78 87 80 79 57 47 46 85 79 85 110 123 138 137 137 144 142 150 154 155 156 158 160 162 163 166 168 171 175 181 188 193 196 195 198 205 211 216 216 212 214 224 234
271 271 283 308 299 75 76 79 38 62 66 67 33 92 94 114 121 135 146 146 148 146 142 151 158 160 163 165 168 170 172 175 177 179 183 188 195 201 205 205 207 211 216 222 228 225 220 222 230
275 295 296 290 266 192 76 15 64 69 28 48 22 83 117 133 135 146 150 157 153 147 141 153 161 165 169 172 176 178 180 183 186 189 192 197 203 208 212 213 215 218 220 221 225 231 233 232 233
277 291 290 290 278 168 84 314 339 51 97 65 3 67 125 133 148 148 152 166 157 148 145 158 163 167 173 179 184 187 189 192 196 200 203 206 211 217 219 219 218 219 220 222 226 232 237 240 241
266 269 276 300 340 51 59 339 338 291 127 105 86 77 119 139 153 150 160 172 167 156 150 164 167 170 178 184 186 190 197 202 205 210 214 216 220 219 217 223 219 216 218 220 225 231 237 242 246
241 260 270 312 339 343 20 330 315 300 220 180 181 120 130 144 159 164 168 175 173 164 160 168 170 169 183 194 179 188 199 202 207 213 209 212 225 235 229 214 214 214 217 220 224 230 236 240 248
247 259 280 303 326 323 316 306 308 293 299 98 85 124 141 149 166 179 177 180 172 175 178 170 169 164 185 201 173 188 201 198 201 218 218 210 218 228 237 210 202 210 215 221 226 227 231 236 236
251 269 286 292 300 304 299 297 300 301 301 91 101 121 156 170 176 186 186 184 171 181 195 184 168 165 188 205 194 187 201 197 197 202 215 213 208 229 230 214 193 201 210 212 222 210 217 229 239
258 268 275 279 276 275 277 279 282 280 283 79 112 168 190 189 181 184 188 186 174 181 198 203 166 164 177 212 237 206 208 205 203 202 201 213 207 213 225 221 216 226 235 207 208 219 217 221 237
280 285 279 280 276 269 266 268 269 266 258 248 310 259 234 211 192 175 180 182 183 183 197 204 176 170 179 194 217 259 245 215 227 208 198 202 214 214 217 214 208 217 240 254 222 222 224 228 234
270 279 273 262 251 248 256 264 262 261 254 242 275 264 262 287 188 173 174 178 192 188 195 200 191 184 190 208 213 225 237 242 229 217 211 197 205 214 217 227 224 222 226 230 238 253 251 252 250
261 259 262 260 236 231 243 269 278 269 246 243 268 278 243 74 310 247 167 166 196 196 188 195 212 198 194 209 223 231 236 238 237 221 212 204 208 212 217 223 227 222 223 218 228 237 246 253 262
251 246 255 261 188 214 249 275 285 292 293 303 300 301 353 96 91 351 29 144 203 224 192 187 216 222 199 203 219 237 253 257 261 253 226 210 208 209 208 223 227 224 226 225 246 244 244 255 260
298 297 276 268 198 162 279 290 290 278 247 273 307 348 26 43 66 38 12 340 297 241 226 210 208 244 249 223 226 238 249 252 246 249 255 251 228 214 209 217 220 221 226 225 226 239 245 249 250
317 310 313 311 317 320 299 291 289 290 277 257 2 59 46 37 65 54 7 331 331 327 254 244 242 251 260 259 251 249 252 259 264 259 246 237 234 232 219 231 223 218 225 227 223 225 237 241 244
289 291 289 287 303 304 291 284 282 276 263 214 171 131 121 105 93 87 71 354 5 9 2 347 332 295 276 265 265 264 267 270 266 266 269 264 251 238 234 226 233 234 238 235 227 223 227 234 225
283 295 308 319 324 310 297 283 270 259 228 167 161 153 126 113 106 100 85 57 33 15 350 346 353 336 320 305 285 277 273 264 265 262 261 258 253 249 247 244 241 239 239 241 234 228 226 229 226
291 316 327 311 297 288 288 290 288 279 171 151 142 132 125 116 102 74 40 31 351 330 310 326 325 324 320 309 296 290 280 272 268 269 264 258 251 247 246 245 243 244 245 244 243 237 232 227 230
307 314 300 285 277 275 274 274 280 313 132 125 117 131 133 113 85 42 340 340 325 317 317 311 297 296 302 302 293 286 283 280 280 277 265 256 248 242 243 244 244 241 242 244 242 234 217 217 225
297 294 286 271 260 264 303 313 308 44 117 135 152 166 161 211 269 313 320 328 322 310 301 301 315 311 297 289 289 286 286 287 286 282 273 261 247 237 228 230 232 233 230 227 215 198 199 220 225
288 299 307 316 295 269 256 272 287 137 139 154 167 178 196 236 283 311 316 306 294 288 292 308 305 304 308 305 301 297 293 289 283 280 275 268 255 238 219 216 212 212 205 199 188 186 196 200 211
288 286 299 316 315 316 307 296 8 104 107 127 172 218 253 275 274 286 280 271 292 310 322 323 323 323 320 316 313 308 301 293 288 286 280 270 259 248 217 209 204 205 202 202 192 193 200 198 208
287 292 311 310 296 293 298 318 59 100 29 276 250 255 269 278 289 292 299 338 351 352 342 333 328 324 324 320 316 306 311 311 305 300 290 281 270 251 212 204 202 201 196 200 192 204 209 194 201
249 286 306 301 300 304 306 314 353 44 284 259 275 299 297 293 301 316 349 349 354 341 319 311 312 312 317 322 330 330 337 329 326 327 327 320 313 303 224 198 186 183 181 184 194 203 198 190 202
265 256 272 287 293 298 298 300 319 340 333 323 320 317 318 320 317 318 328 329 331 321 317 312 304 297 312 335 344 347 351 352 358 9 9 8 10 16 19 88 157 170 177 176 179 191 172 170 169
282 280 288 284 282 283 285 290 310 1 329 322 320 321 331 330 320 308 303 330 331 321 318 309 301 298 312 336 345 358 2 3 10 27 29 28 25 26 21 15 38 103 153 166 174 155 124 120 105
Height
1504 1503 1503 1506 1503 1500 1494 1475 1470 1472 1474 1478 1481 1480 1480 1486 1496 1507 1507 1508 1507 1509 1514 1518 1522 1525 1528 1530 1533 1535 1538 1540 1542 1544 1546 1547 1549 1550 1551 1552 1553 1554 1555 1556 1556 1557 1558 1558 1559
1503 1504 1508 1506 1501 1513 1495 1473 1477 1479 1480 1481 1483 1483 1483 1491 1498 1503 1506 1509 1509 1511 1515 1518 1522 1526 1529 1531 1534 1536 1539 1541 1543 1545 1546 1548 1549 1550 1551 1552 1553 1554 1555 1556 1557 1558 1558 1559 1559
1504 1505 1507 1497 1493 1503 1490 1475 1477 1478 1481 1482 1483 1486 1490 1497 1501 1504 1507 1510 1510 1512 1516 1519 1523 1526 1529 1532 1534 1537 1539 1542 1544 1545 1547 1548 1549 1551 1551 1552 1553 1554 1555 1556 1557 1558 1559 1559 1560
1506 1506 1502 1493 1488 1479 1473 1474 1474 1476 1480 1482 1482 1486 1495 1501 1502 1504 1507 1510 1511 1513 1516 1519 1523 1526 1529 1532 1534 1537 1539 1542 1544 1545 1547 1548 1549 1550 1551 1552 1553 1554 1555 1556 1557 1557 1558 1559 1559
1509 1504 1494 1488 1483 1472 1470 1473 1475 1477 1482 1483 1483 1487 1498 1502 1503 1505 1508 1511 1512 1515 1516 1519 1522 1526 1529 1532 1534 1536 1539 1541 1543 1545 1546 1548 1549 1550 1550 1551 1552 1553 1554 1555 1556 1557 1557 1558 1558
1508 1497 1494 1493 1485 1472 1472 1475 1476 1478 1481 1483 1484 1486 1499 1503 1504 1506 1509 1512 1514 1516 1516 1520 1522 1525 1528 1531 1534 1536 1538 1540 1542 1544 1546 1547 1548 1549 1550 1551 1552 1552 1553 1554 1555 1556 1556 1557 1557
1507 1498 1494 1486 1483 1475 1475 1476 1478 1480 1482 1484 1486 1487 1498 1502 1504 1507 1510 1512 1515 1516 1516 1520 1522 1525 1527 1530 1533 1535 1537 1539 1541 1543 1545 1546 1547 1548 1549 1550 1550 1551 1552 1553 1554 1555 1555 1555 1555
1505 1501 1493 1482 1478 1476 1475 1477 1476 1479 1484 1487 1488 1488 1497 1502 1504 1507 1510 1513 1515 1517 1516 1519 1522 1524 1527 1529 1532 1534 1536 1538 1540 1542 1543 1544 1545 1546 1547 1548 1549 1550 1550 1551 1552 1552 1553 1553 1553
1504 1504 1498 1483 1479 1476 1477 1479 1477 1480 1482 1487 1488 1490 1495 1500 1503 1506 1509 1513 1515 1517 1516 1518 1520 1522 1525 1528 1530 1533 1534 1536 1538 1540 1541 1542 1543 1544 1545 1546 1547 1548 1548 1549 1549 1550 1550 1550 1550
1500 1501 1490 1478 1478 1477 1479 1482 1480 1479 1479 1484 1486 1491 1494 1499 1502 1505 1508 1511 1514 1516 1517 1518 1520 1521 1524 1527 1529 1531 1533 1534 1536 1538 1539 1540 1541 1542 1544 1544 1545 1545 1546 1546 1546 1547 1547 1547 1547
1495 1494 1486 1481 1480 1481 1482 1481 1480 1479 1478 1481 1487 1491 1493 1498 1502 1504 1506 1509 1512 1515 1517 1518 1520 1520 1523 1527 1529 1529 1531 1532 1533 1535 1537 1538 1539 1540 1542 1542 1542 1542 1543 1543 1543 1543 1543 1543 1543
1492 1490 1487 1485 1486 1485 1484 1483 1482 1480 1480 1482 1486 1491 1494 1496 1500 1503 1505 1508 1510 1513 1516 1518 1518 1518 1521 1525 1528 1528 1530 1531 1531 1532 1534 1536 1536 1538 1539 1540 1540 1540 1539 1539 1540 1540 1540 1541 1542
1489 1490 1489 1486 1486 1486 1486 1484 1483 1481 1481 1482 1486 1489 1492 1494 1497 1500 1503 1506 1508 1510 1513 1516 1516 1516 1518 1521 1524 1527 1528 1530 1530 1530 1531 1532 1534 1534 1536 1537 1538 1539 1539 1539 1538 1538 1539 1539 1539
1490 1488 1486 1485 1484 1483 1483 1481 1481 1479 1479 1481 1485 1489 1490 1491 1493 1497 1501 1504 1507 1508 1511 1513 1514 1514 1515 1517 1520 1522 1524 1526 1528 1528 1528 1528 1530 1532 1533 1533 1534 1534 1535 1536 1536 1535 1535 1535 1535
1492 1491 1487 1482 1478 1478 1479 1480 1477 1476 1475 1479 1483 1486 1489 1491 1493 1496 1498 1502 1505 1507 1508 1510 1511 1512 1513 1515 1516 1519 1520 1522 1524 1525 1526 1525 1526 1527 1528 1529 1529 1529 1530 1531 1531 1531 1531 1531 1532
1489 1489 1487 1473 1468 1472 1481 1486 1473 1471 1473 1478 1482 1485 1487 1491 1494 1497 1498 1500 1503 1505 1506 1507 1510 1510 1510 1512 1514 1515 1517 1519 1520 1521 1521 1522 1522 1522 1523 1523 1524 1524 1525 1525 1525 1526 1526 1526 1526
1486 1488 1481 1467 1463 1470 1476 1481 1473 1473 1474 1478 1482 1485 1488 1491 1495 1498 1499 1500 1502 1504 1505 1505 1507 1508 1508 1508 1510 1511 1513 1514 1515 1517 1517 1517 1517 1517 1517 1517 1518 1519 1519 1519 1519 1520 1520 1520 1520
1487 1478 1471 1468 1463 1470 1479 1480 1474 1472 1475 1479 1482 1486 1489 1493 1496 1498 1500 1501 1502 1503 1503 1504 1504 1505 1506 1506 1506 1507 1508 1509 1510 1511 1512 1513 1513 1513 1512 1512 1512 1512 1513 1513 1513 1513 1514 1514 1515
1486 1484 1482 1474 1466 1474 1481 1482 1476 1472 1473 1476 1482 1487 1491 1494 1497 1499 1501 1502 1502 1502 1501 1501 1502 1502 1502 1503 1503 1503 1503 1504 1505 1506 1506 1507 1507 1508 1507 1507 1507 1506 1506 1506 1506 1506 1506 1508 1509
1489 1488 1485 1476 1470 1476 1481 1480 1474 1471 1470 1474 1480 1486 1491 1494 1497 1499 1501 1502 1502 1501 1500 1500 1499 1499 1499 1499 1499 1499 1500 1500 1500 1500 1500 1500 1500 1501 1501 1500 1500 1500 1500 1500 1499 1499 1499 1500 1502
1489 1489 1487 1486 1482 1481 1484 1482 1471 1463 1465 1472 1479 1486 1490 1494 1497 1500 1501 1502 1501 1500 1499 1498 1497 1496 1495 1495 1495 1494 1494 1493 1493 1494 1494 1494 1494 1493 1493 1493 1492 1492 1493 1492 1491 1492 1492 1493 1494
1495 1486 1488 1491 1495 1494 1487 1491 1471 1459 1462 1471 1481 1487 1491 1494 1497 1499 1501 1501 1501 1500 1499 1497 1495 1494 1493 1492 1491 1490 1489 1488 1488 1488 1487 1486 1486 1486 1486 1485 1485 1485 1485 1484 1484 1484 1484 1485 1486
1492 1489 1491 1490 1492 1493 1484 1486 1472 1460 1469 1477 1485 1490 1492 1494 1496 1498 1499 1500 1499 1499 1497 1495 1493 1491 1490 1489 1487 1486 1485 1483 1482 1481 1480 1479 1479 1478 1478 1478 1477 1477 1477 1476 1476 1476 1476 1477 1478
1490 1491 1488 1482 1483 1496 1488 1492 1482 1471 1473 1480 1485 1490 1492 1494 1495 1496 1497 1497 1497 1496 1495 1493 1491 1489 1487 1485 1484 1482 1480 1478 1477 1475 1474 1473 1472 1471 1470 1470 1470 1470 1470 1469 1469 1470 1470 1471 1472
1492 1500 1506 1501 1496 1499 1490 1490 1481 1469 1468 1474 1480 1485 1488 1490 1492 1493 1494 1495 1494 1493 1492 1490 1488 1486 1484 1482 1480 1478 1475 1473 1471 1469 1468 1467 1466 1465 1465 1465 1465 1464 1464 1465 1465 1466 1467 1468 1469
1494 1498 1512 1520 1512 1496 1482 1481 1470 1464 1469 1474 1478 1482 1484 1487 1488 1489 1490 1490 1490 1490 1489 1487 1485 1482 1480 1478 1475 1473 1470 1468 1465 1463 1462 1461 1460 1460 1460 1460 1460 1461 1462 1462 1463 1464 1465 1466 1468
1496 1494 1489 1499 1500 1500 1486 1473 1468 1470 1474 1476 1478 1479 1481 1483 1484 1485 1486 1487 1487 1486 1485 1483 1481 1478 1476 1474 1471 1468 1465 1462 1460 1458 1456 1455 1455 1455 1455 1456 1457 1458 1459 1460 1461 1462 1464 1465 1467
1488 1490 1495 1505 1514 1514 1498 1487 1482 1478 1476 1475 1475 1477 1478 1479 1481 1482 1483 1484 1484 1483 1482 1480 1477 1475 1472 1470 1467 1464 1461 1458 1455 1453 1451 1450 1450 1450 1451 1452 1453 1455 1457 1458 1460 1461 1462 1464 1466
1488 1492 1493 1496 1499 1514 1516 1500 1472 1473 1472 1473 1473 1474 1476 1477 1478 1478 1479 1480 1481 1480 1479 1477 1475 1472 1470 1467 1464 1461 1457 1454 1452 1450 1449 1447 1447 1447 1448 1449 1450 1452 1454 1456 1458 1459 1462 1463 1465
1479 1484 1489 1503 1504 1499 1503 1495 1469 1471 1472 1472 1473 1474 1475 1476 1475 1475 1475 1476 1477 1477 1476 1474 1472 1470 1468 1465 1462 1458 1456 1453 1450 1448 1447 1446 1445 1445 1446 1447 1448 1450 1452 1455 1457 1459 1461 1462 1464